Regional Weather Roundup
Issued by NWS

Home | Current Version | Previous Version | Text Only | Print | Product List | Glossary Off
Versions: 1 2 3 4 5 6 7 8 9 10 11 12 13 14 15 16 17 18 19 20 21 22 23 24 25 26 27 28 29 30 31 32 33 34 35 36 37 38 39 40 41 42 43 44 45 46 47 48 49 50

000
ASUS43 KMKX 200721
RWRWI

WISCONSIN REGIONAL WEATHER ROUNDUP
NATIONAL WEATHER SERVICE MILWAUKEE/SULLIVAN WI
200 AM CDT FRI OCT 20 2017

NOTE: "FAIR" INDICATES FEW OR NO CLOUDS BELOW 12,000 FEET WITH NO
SIGNIFICANT WEATHER AND/OR OBSTRUCTIONS TO VISIBILITY.

WIZ001-002-006>008-014>016-023>028-200800-
NORTHWEST WISCONSIN

CITY           SKY/WX    TMP DP  RH WIND       PRES   REMARKS
SUPERIOR ARPT  FAIR      42  37  82 SW3       29.89F
ASHLAND        FAIR      45  36  70 S7        29.93S
HAYWARD        FAIR      56  41  57 S8        29.95F
SIREN          FAIR      59  44  57 S7        29.92S
CUMBERLAND     FAIR      50  36  57 SE5       29.96S
RICE LAKE      FAIR      47  37  68 CALM      29.98S
CHETEK         FAIR      48  38  68 E9        29.97S
LADYSMITH      FAIR      53  37  53 SE3       30.00F
EAU CLAIRE     FAIR      49  37  63 CALM      29.98S
MENOMONIE      FAIR      51  38  63 SE7       29.97F
NEW RICHMOND   FAIR      53  42  66 S7        29.94S
OSCEOLA        FAIR      55  44  67 SE5       29.95F
$$

WIZ003>005-009-010-017-018-200800-
NORTH CENTRAL WISCONSIN

CITY           SKY/WX    TMP DP  RH WIND       PRES   REMARKS
MANITOWISH WTR FAIR      47  36  66 S3        29.99F
ARBOR VITAE    FAIR      55  38  52 S8        30.00F
WOODRUFF       FAIR      55  38  52 S8        30.00F
RHINELANDER    FAIR      55  36  48 SW10      30.03S
EAGLE RIVER    FAIR      52  33  47 SW5       30.01F
LAND O LAKES   FAIR      45  34  63 S3        30.02F
PHILLIPS       FAIR      51  37  59 S6        29.99F
TOMAHAWK       FAIR      43  36  76 CALM      30.03F
MEDFORD        FAIR      46  36  68 S7        30.02S
MERRILL        FAIR      53  36  51 S3        30.04F
$$

WIZ029-030-035-036-043>047-200800-
CENTRAL WISCONSIN

CITY           SKY/WX    TMP DP  RH WIND       PRES   REMARKS
WAUSAU         FAIR      50  36  58 SE6       30.03S
MOSINEE        FAIR      46  36  66 S8        30.05S
MARSHFIELD     FAIR      47  35  63 S8        30.03S
STEVENS POINT  FAIR      49  34  55 S3        30.05F
WAUPACA        FAIR      49  36  60 CALM      30.06F
WAUTOMA        FAIR      41  38  89 CALM      30.07F
WISC RAPIDS    FAIR      52  36  54 S6        30.05F
CAMP DOUGLAS   FAIR      55  42  60 S6        30.03F
$$

WIZ011>013-019>022-031-037>040-048>050-200800-
NORTHEAST WISCONSIN

CITY           SKY/WX    TMP DP  RH WIND       PRES   REMARKS
ANTIGO         FAIR      49  36  59 SW8       30.06S
SHAWANO        FAIR      51  37  57 CALM      30.06S
OCONTO         FAIR      51  37  57 CALM      30.06S
STURGEON BAY   FAIR      52  36  54 S8        30.08S
GREEN BAY      FAIR      49  40  71 S6        30.07F
MANITOWOC      FAIR      48  34  58 S7        30.10F
APPLETON       FAIR      52  32  46 S9        30.06F
CLINTONVILLE   FAIR      46  36  66 S3        30.06S
OSHKOSH        FAIR      50  38  63 S12       30.08S
$$

WIZ032>034-041-042-053>061-200800-
SOUTHWEST WISCONSIN

CITY           SKY/WX    TMP DP  RH WIND       PRES   REMARKS
LA CROSSE      FAIR      60  45  57 S12       30.01S
SPARTA         FAIR      59  46  60 S5        30.03S
VIROQUA        FAIR      56  45  67 S9        30.05S
BOSCOBEL       FAIR      45  41  86 CALM      30.06F
PRAIRIE DU CHI FAIR      54  45  71 CALM      30.05S
PLATTEVILLE    FAIR      54  48  78 SE6       30.08F
$$

WIZ056-057-062-063-064-067-068-200800-
SOUTH CENTRAL WISCONSIN

CITY           SKY/WX    TMP DP  RH WIND       PRES   REMARKS
REEDSBURG      FAIR      56  41  57 S7        30.06S
BARABOO/DELLS  FAIR      51  39  63 S7        30.07S
LONE ROCK      FAIR      50  42  74 E3        30.07S
MINERAL POINT  FAIR      54  43  66 SE8       30.08F
MADISON        FAIR      54  38  54 S8        30.09F
MIDDLETON      FAIR      56  37  49 S6        30.09F
WATERTOWN      FAIR      49  37  61 S5        30.10S
MONROE         FAIR      52  41  66 S10       30.10S
JANESVILLE     FAIR      52  39  62 CALM      30.11S
$$

WIZ051-052-058>065-066-070>072-200800-
SOUTHEAST WISCONSIN

CITY           SKY/WX    TMP DP  RH WIND       PRES   REMARKS
MILWAUKEE      FAIR      55  31  39 S8        30.12F
WAUKESHA       FAIR      50  28  43 S6        30.13S
MILWAUKEE/TIMM FAIR      52  25  35 S6        30.13S
RACINE         FAIR      56  31  38 S7        30.14F
BURLINGTON     FAIR      43  39  87 CALM      30.13S
KENOSHA        FAIR      53  35  50 S7        30.14S
FOND DU LAC    FAIR      55  35  47 S7        30.09S
SHEBOYGAN      FAIR      44  36  73 CALM      30.11S
WEST BEND      FAIR      54  28  37 S6        30.11S
JUNEAU         FAIR      51  36  54 S7        30.11S
$$

LSZ147-162-200800-
LAKE SUPERIOR

STATION/POSITION TIME  TEMP    WIND        PRES    WAVE
                       AIR SEA DIR/SP/G            HT/PER
                 (UTC) (F)     (DEG/KT/KT) (MB)    (FT/S)
W MID LAKE BUOY  0650   55 52              1012.9R   1/ 3
DEVILS ISLAND    0700   59     180/  5/  6 1012.5F
SAXON HARBOR     0630   61     190/  8/ 11 1012.9S
$$

LMZ867-665-643>646-200800-
LAKE MICHIGAN

STATION/POSITION TIME  TEMP    WIND        PRES    WAVE
                       AIR SEA DIR/SP/G            HT/PER
                 (UTC) (F)     (DEG/KT/KT) (MB)    (FT/S)
S GREEN BAY BUOY 0700   58 58  200/ 12/ 16 1017.9
N MID LAKE BUOY  0650   60 58  200/ 17/ 21 1018.7F   4/ 6
NORTHPORT PIER   0640   54     180/  4/  9 1018.3R
KEWAUNEE LAKESHO 0654   53     190/ 10/ 12 1018.0F
SHEBOYGAN LAKESH 0700   54     210/  6/  7 1019.5R
PORT WASHINGTON  0630   56     230/  9/ 15 1020.7S
ATWATER BUOY     0609   57 53  180/ 10/ 12 1020.1S
MILWAUKEE LAKESH 0700   57     220/  6/  7   N/A
S MID LAKE BUOY  0650   62 60  140/ 12/ 14 1020.8F   1/ 3
KENOSHA   LAKESH 0700   58     190/  8/ 11 1020.3
$$

TC  - TEMPERATURE IN CELSIUS
VSB - VISIBILITY IN STATUTE MILES
WCI - WIND CHILL INDEX
HX  - HEAT INDEX





USA.gov is the U.S. government's official web portal to all federal, state and local government web resources and services.